Weather in Medvezhye

Russia / Omsk Oblast     55°11′13″N   71°17′28″E
temp.,
°C
wind,
m/s
gust,
m/s
humid.,
%
clouds,
%
prec.,
mm/h
press.,
hPa
HPBL,
m
12 april, mon
mon1200:00−2sw389798 0.0 1038146
03:00−2sw389775 0.0 1037140
06:00−2sw4109619 0.0 1036170
09:00+1sw4108787 0.0 1035231
12:00+4wsw5980100 0.0 1034271
15:00+7w5976100 0.0 1033416
18:00+6w3890100 0.0 1033160
21:00+4nnw4997100 0.3 1034194
13 april, tue
tue1300:00+3nnw3595100 0.3 103568
03:00+2n49911 0.0 1037148
06:000n34860 0.0 103954
09:00+3nnw35750 0.0 1040188
12:00+7wnw45700 0.0 1040652
15:00+9nw46585 0.0 10391088
18:00+9wnw366148 0.0 1039582
21:00+5w35761 0.0 103864
14 april, wed
wed1400:00+4w347996 0.0 103852
03:00+3wsw358214 0.0 103763
06:00+2wsw488680 0.0 1036131
09:00+5wsw51182100 0.0 1035322
12:00+9wsw71163100 0.0 1033563
15:00+12w71051100 0.0 1030817
18:00+13w6105985 0.0 1028804
21:00+9w49805 0.0 1028151
15 april, thu
thu1500:00+8w48875 0.0 1027131
03:00+7w35905 0.0 102684
06:00+7w34925 0.0 102557
09:00+10w47865 0.0 1025209
12:00+15w56685 0.0 1023625
15:00+17w68565 0.1 10211698
18:00+17w58555 0.1 10191430
21:00+13w36738 0.0 101975
16 april, fri
fri1600:00+11w367961 0.0 101876
03:00+9w34855 0.0 101762
06:00+8w338726 0.0 101633
09:00+11wsw34795 0.0 1015168
12:00+16wsw34636 0.0 1014693
15:00+18sw3349100 0.0 10131673
18:00+17sw2349100 0.0 1011788
21:00+13ssw2261100 0.0 101010